Theta_e
306 309 308 309 310 310 310 312 313 311 312 316 315 320 328 328 327 326 325 325 321 318 318 318 320 319 320 321 321 321 323 322 321 322 324 324 323 322 322 322 321 322 321 322 323 322 321 320 321 321 322 323 322 323 323 322 322 321 319 322 324 324 321 315 312 317 322 324 326 326 328 329 327 328 333 331 328 329 331 332 330 325 322 322 322 324 335
307 307 308 309 309 309 309 311 312 311 310 313 314 321 325 324 325 325 325 324 321 319 319 319 320 321 321 322 321 322 323 321 322 322 322 323 323 321 322 323 322 321 321 321 322 322 319 319 322 323 322 323 323 322 321 322 320 320 323 325 322 320 320 317 314 315 317 318 320 321 324 327 327 330 334 333 331 331 330 331 332 330 325 325 325 326 333
307 306 307 309 310 310 310 310 312 311 310 311 315 321 323 324 326 326 324 323 322 321 320 320 322 323 323 323 323 323 324 323 322 321 321 322 322 322 322 322 321 321 321 321 322 322 320 319 322 322 321 323 322 321 322 321 320 323 327 329 323 320 321 320 314 314 316 316 316 317 321 325 326 329 332 332 332 330 328 330 333 332 329 328 330 333 338
307 307 307 310 311 310 310 310 312 311 310 311 314 320 323 325 328 329 325 323 321 321 321 320 322 323 323 326 326 325 325 324 322 321 321 321 323 323 322 322 322 321 321 321 321 323 322 321 323 322 323 323 321 322 323 319 323 329 328 324 322 322 322 321 318 316 316 316 318 321 323 321 320 323 327 329 330 331 332 331 331 334 332 328 333 341 341
307 307 308 310 311 311 310 309 311 312 311 310 314 321 324 327 330 329 327 326 323 321 321 319 320 321 322 326 328 327 325 324 323 321 321 322 322 323 323 323 323 321 322 321 320 321 322 322 322 322 323 323 321 323 321 321 331 337 327 319 322 320 317 319 321 319 319 321 323 324 323 320 319 321 323 325 328 331 332 329 329 334 332 326 333 342 337
307 307 309 310 312 311 310 309 310 313 312 311 315 322 324 327 330 326 327 327 326 325 324 322 322 321 321 323 326 326 326 325 324 323 321 321 323 323 323 324 323 322 323 320 319 320 321 321 323 323 323 323 322 322 321 323 331 332 322 320 324 320 317 319 319 318 321 323 323 323 323 322 323 325 324 325 327 327 328 327 329 332 329 326 331 338 338
308 307 309 310 311 311 310 309 310 314 313 313 317 322 323 325 327 325 325 326 327 328 326 326 325 324 324 325 323 323 326 326 325 324 323 323 322 323 324 323 323 322 323 321 321 322 319 318 323 325 324 324 323 323 323 322 324 325 322 323 325 321 319 322 320 317 319 322 323 322 322 320 322 325 326 326 326 325 326 328 331 332 330 330 334 337 338
308 308 309 310 311 311 310 309 310 313 313 315 321 324 325 326 326 326 325 324 325 326 327 327 327 327 327 327 327 325 325 327 326 324 324 325 325 323 323 323 323 322 323 323 322 323 321 321 324 325 324 324 324 324 323 323 322 324 323 324 324 322 319 323 322 316 315 320 321 321 320 319 318 320 324 325 324 325 327 328 330 330 328 333 336 333 336
308 308 309 310 311 312 311 309 310 312 313 320 324 324 324 325 325 325 326 326 326 325 326 327 327 327 328 327 328 327 326 327 327 326 325 325 324 324 323 323 322 322 322 322 321 322 322 322 323 324 324 324 325 325 323 324 323 324 323 323 324 323 321 322 321 314 313 318 319 318 320 320 316 317 321 324 322 322 325 328 330 329 327 331 332 328 335
308 308 309 310 311 312 311 309 310 311 313 320 325 322 323 325 324 324 326 327 328 326 325 327 326 326 326 327 327 326 326 326 325 326 326 324 325 325 324 324 324 324 324 322 323 323 322 322 323 324 324 323 323 323 323 322 324 323 324 324 325 325 322 320 319 314 313 317 318 319 319 317 314 318 323 326 325 325 326 328 330 333 332 331 328 331 342
308 307 308 310 311 311 311 310 309 310 312 317 321 321 323 325 323 323 324 326 327 325 326 327 326 326 325 325 326 325 326 326 326 326 327 326 325 325 325 326 326 326 325 324 324 324 322 322 324 321 322 322 322 323 323 323 323 323 323 323 323 324 323 322 321 316 313 317 319 319 316 314 317 325 329 329 327 327 327 328 330 336 336 334 333 336 343
307 307 308 310 311 311 311 310 309 310 310 312 316 319 322 324 322 323 325 327 328 326 327 327 327 326 324 323 324 325 325 326 326 327 328 327 327 326 325 326 326 327 327 325 324 324 322 323 323 322 322 322 322 323 322 322 323 323 323 323 323 323 322 323 322 318 314 317 318 315 313 317 324 329 330 328 327 328 328 329 329 331 332 335 336 336 341
307 308 308 310 311 311 311 310 309 310 310 309 313 318 320 322 322 322 326 328 328 327 327 327 327 326 325 324 324 325 325 324 325 326 327 327 327 327 327 327 326 326 325 325 324 324 324 324 323 323 323 322 322 323 322 322 322 322 322 322 323 323 323 321 320 319 317 315 314 314 316 322 327 327 327 327 327 328 327 326 328 330 332 335 336 338 346
307 308 307 309 311 311 311 310 308 310 310 309 311 316 318 320 322 322 325 328 329 328 327 328 327 326 325 324 324 324 323 323 324 324 325 326 326 326 327 326 326 326 324 325 326 325 325 325 322 320 321 321 320 320 322 323 321 322 322 322 323 324 323 321 317 317 318 313 313 316 318 320 324 327 327 327 328 328 327 325 327 334 338 339 341 343 347
308 308 307 308 310 310 311 310 308 309 310 309 310 314 318 320 321 321 322 326 328 328 326 327 327 325 325 325 324 325 324 324 324 324 324 324 324 326 326 326 326 325 324 325 326 325 326 323 317 314 315 316 316 316 321 322 321 322 322 322 324 325 326 324 318 316 318 315 313 316 315 315 321 327 329 327 327 328 328 324 327 336 340 340 342 344 345
308 308 307 307 309 310 311 310 309 309 309 308 310 315 318 319 319 319 321 324 326 326 325 324 325 325 325 324 323 325 325 324 324 324 324 324 324 323 324 323 325 326 325 325 326 327 326 322 317 314 314 316 316 316 319 321 321 323 323 323 323 324 326 326 320 316 317 315 314 316 315 317 325 329 329 327 327 330 329 323 324 335 340 338 340 343 345
308 307 307 307 308 310 311 310 309 309 309 308 310 314 318 319 320 319 320 322 324 324 323 322 324 325 325 324 324 325 325 324 324 325 326 326 325 323 323 323 323 324 324 325 326 325 323 321 318 315 316 320 320 318 319 319 317 320 323 324 323 324 326 325 318 315 315 315 314 315 315 321 329 330 327 326 328 330 326 321 324 335 338 336 339 343 344
308 307 307 307 308 310 311 310 309 309 309 308 309 312 315 318 319 319 319 321 323 323 323 322 323 325 325 324 325 325 325 324 325 325 326 326 326 326 325 324 324 323 324 325 326 324 322 320 320 316 316 323 325 320 319 320 317 319 323 323 323 324 325 323 319 315 315 314 313 312 316 326 332 329 328 329 329 327 322 322 331 339 337 335 337 341 343
307 307 307 307 309 310 311 310 309 309 308 307 309 312 315 317 318 319 319 321 323 324 324 323 323 324 324 323 324 323 324 324 325 325 325 325 327 326 325 324 324 324 323 324 325 325 321 319 322 321 318 320 324 323 321 321 320 323 324 322 320 321 322 322 320 318 316 316 314 312 318 329 332 329 331 330 326 325 325 329 337 338 335 336 338 340 343
307 307 307 308 310 311 310 309 309 309 308 307 308 312 316 317 318 319 319 320 321 323 323 323 324 324 323 323 324 323 323 324 325 325 325 325 326 326 325 325 325 324 325 324 324 325 323 320 324 324 319 320 325 324 321 322 324 325 325 323 323 322 320 318 319 320 318 315 314 314 319 329 332 328 331 333 330 331 333 334 336 335 333 335 340 342 344
307 307 307 308 310 310 309 309 309 308 308 308 308 311 315 317 318 319 319 319 320 321 323 323 323 323 323 323 323 323 323 323 324 325 325 325 326 327 327 328 326 325 326 325 323 324 324 322 325 325 322 324 328 325 321 320 323 326 327 325 325 324 322 318 321 324 319 315 317 322 325 331 332 329 331 334 336 336 335 332 332 333 332 335 341 345 347
307 307 307 307 309 310 310 309 309 308 308 308 308 311 315 318 319 319 319 319 319 320 321 322 321 321 321 322 322 322 322 323 323 323 323 323 325 326 327 328 328 327 327 327 326 326 325 325 326 325 323 325 326 324 323 320 319 324 327 324 324 328 328 325 326 329 325 321 324 331 332 332 331 329 330 332 334 334 333 331 331 331 333 339 341 342 343
307 306 307 308 310 310 309 309 309 308 308 308 309 311 315 317 318 318 318 319 319 319 320 321 321 321 321 321 321 321 320 320 320 321 321 321 323 324 325 326 326 326 326 329 331 331 330 330 331 329 328 327 325 324 324 321 322 326 326 324 327 332 332 329 329 328 326 326 327 329 329 328 328 329 330 333 334 331 330 331 332 331 334 339 341 339 339
306 306 307 308 309 309 309 309 309 308 307 307 309 311 313 315 316 316 318 319 320 321 322 323 322 322 322 321 322 322 320 320 320 320 319 320 321 321 322 323 323 325 327 330 332 331 330 330 331 330 330 329 325 323 321 320 324 329 327 324 327 329 327 327 329 327 323 325 327 328 329 330 330 330 329 330 334 334 333 335 334 332 336 340 341 341 339
307 307 308 308 309 309 309 309 309 308 307 307 308 310 311 313 314 315 317 318 319 320 322 323 322 322 322 320 321 321 321 320 320 320 319 320 320 320 321 322 323 324 327 329 330 330 330 329 328 329 330 329 326 326 325 322 324 328 327 324 325 327 326 326 328 327 325 325 327 329 331 332 332 333 331 331 333 337 339 338 335 334 338 340 341 341 341
307 308 309 309 309 309 309 309 309 308 307 306 307 309 312 314 315 315 316 317 318 319 320 320 320 320 321 322 321 321 320 320 320 320 320 320 320 319 320 320 321 323 324 326 327 328 329 328 327 327 329 328 327 327 328 327 326 326 325 325 327 327 327 326 326 326 326 326 328 329 330 333 337 337 335 335 335 335 337 336 335 336 340 341 342 341 341
308 308 309 309 309 309 310 309 308 307 307 307 307 309 311 313 314 316 316 317 319 321 321 321 322 322 322 321 320 320 321 320 320 320 319 320 320 320 320 320 320 321 322 324 326 327 327 327 328 327 327 328 328 327 327 328 328 325 325 328 328 327 327 327 326 325 326 329 332 333 331 333 336 336 335 335 334 332 333 334 336 339 340 341 342 341 340
309 308 308 309 310 310 310 309 307 307 308 308 308 309 311 312 313 314 315 316 318 320 321 321 321 321 321 320 319 320 320 320 320 320 320 319 320 320 321 321 321 320 321 323 326 327 326 326 327 326 327 327 328 327 327 328 328 326 327 330 329 328 329 329 329 328 328 329 332 333 331 334 335 335 335 335 334 333 334 337 339 340 339 341 341 341 340
309 309 309 309 310 310 309 307 307 307 308 308 309 311 312 312 313 314 315 315 316 317 318 319 320 320 321 321 321 321 321 321 321 321 320 319 319 320 321 322 321 320 320 323 325 326 327 327 326 326 327 327 327 326 327 327 327 326 328 331 330 328 329 329 329 330 331 331 332 331 331 334 336 335 335 335 334 335 337 339 339 338 338 339 340 340 339
309 310 310 310 309 309 308 307 307 307 307 308 310 313 315 316 316 315 315 315 316 317 318 319 320 321 321 320 320 320 320 320 320 320 320 320 319 320 321 322 322 321 322 323 325 326 327 328 327 326 327 327 326 326 326 326 326 326 328 330 330 327 326 329 329 330 334 336 336 333 333 334 334 333 334 334 334 335 337 337 337 337 337 338 338 339 339
309 309 309 309 308 308 307 307 307 307 306 307 310 314 318 319 318 316 316 316 316 317 318 319 320 320 320 321 321 320 320 320 321 321 321 320 320 321 322 322 322 322 323 323 325 326 327 328 328 327 328 329 327 326 326 326 326 328 330 333 332 330 330 333 331 330 335 337 335 331 331 332 331 332 333 334 334 335 336 335 336 336 337 337 338 337 336
308 308 308 308 308 307 307 307 307 307 307 309 311 313 316 317 317 316 315 316 317 318 318 319 320 320 321 321 321 322 322 320 321 321 321 322 321 322 322 323 322 323 323 324 326 326 327 328 328 327 329 331 329 327 327 326 326 328 332 334 334 334 334 335 332 331 335 336 333 329 330 330 330 332 332 333 334 335 335 334 335 336 335 335 335 335 334
307 307 307 307 307 306 306 307 306 306 307 308 309 310 311 313 315 316 315 316 318 319 319 320 320 321 321 320 320 322 322 321 320 321 321 322 322 322 322 322 322 323 324 324 325 327 328 329 331 331 330 330 329 328 329 327 326 328 331 333 333 334 334 333 330 330 334 335 330 328 330 331 331 332 333 333 335 335 335 334 334 333 333 333 333 333 334
307 306 306 306 306 306 307 307 307 307 307 309 310 312 312 313 315 315 315 317 319 319 319 320 320 321 321 320 319 321 321 320 321 321 321 322 323 323 324 324 323 324 325 324 325 327 328 329 331 331 331 329 328 328 328 327 326 327 330 331 332 332 332 332 330 329 331 332 331 330 331 331 331 333 333 333 333 333 333 333 332 330 330 331 330 331 333
307 307 306 306 306 306 307 308 308 309 311 312 314 316 315 314 314 314 315 317 320 320 321 321 320 321 321 321 321 323 322 320 321 322 323 324 324 323 324 325 325 324 325 325 325 327 329 328 328 330 329 328 329 330 329 327 328 329 330 331 332 332 332 332 333 333 334 334 333 332 330 330 331 332 332 331 331 330 330 331 330 329 329 329 329 329 330
307 307 306 306 306 307 308 309 309 311 313 314 316 317 316 315 315 315 316 317 319 320 322 322 321 322 322 322 322 323 322 320 322 323 323 325 327 325 324 326 326 327 326 326 326 328 329 328 327 327 328 328 330 330 328 328 331 331 331 332 332 331 331 334 335 336 335 334 333 332 330 329 332 333 331 330 330 329 329 328 328 328 327 328 328 329 329
307 307 307 307 307 309 310 312 312 312 314 316 317 316 315 316 317 317 317 318 319 319 320 320 321 321 321 322 322 323 322 322 323 323 323 325 327 327 325 326 327 327 328 327 327 328 329 328 327 327 329 329 330 330 330 331 332 332 331 333 333 331 332 335 335 334 334 333 333 332 329 328 332 333 331 329 329 329 328 328 326 326 327 328 328 328 329
306 307 308 309 310 312 314 315 314 313 313 315 316 317 317 317 318 319 318 318 319 319 319 318 319 320 320 321 321 322 322 323 323 324 325 326 326 326 325 326 327 327 327 327 327 328 329 329 328 327 329 330 329 330 330 331 331 331 332 334 334 334 334 336 335 335 334 334 334 332 329 329 332 333 331 330 328 328 328 328 326 325 326 326 328 329 329
306 308 310 311 312 314 316 316 314 313 314 315 317 319 319 318 319 320 320 319 320 320 320 319 320 320 320 320 321 320 321 322 322 323 326 326 325 326 327 328 328 327 327 327 327 327 329 330 329 327 328 329 329 329 330 331 331 332 332 334 335 336 336 336 335 334 335 334 334 332 330 331 332 332 331 330 329 327 327 327 325 324 324 325 327 329 329
308 310 311 312 312 315 316 316 314 314 316 317 318 320 320 319 320 321 320 320 321 321 321 320 321 321 321 320 321 320 320 320 321 323 325 325 324 326 328 329 328 328 327 327 327 326 327 328 328 327 328 329 329 330 331 331 332 332 333 334 334 335 335 335 335 336 335 335 333 334 333 332 331 331 331 330 329 327 326 325 324 323 324 325 326 328 328
310 311 312 312 313 314 316 316 316 316 318 318 318 319 320 320 320 319 320 321 322 321 320 321 321 321 321 321 321 321 321 321 321 323 324 325 325 326 327 329 329 328 327 326 326 326 326 327 327 328 329 330 330 332 332 331 331 332 333 333 333 334 334 334 334 335 335 333 330 332 335 334 331 330 330 329 329 328 326 325 324 324 324 325 327 328 328
310 310 311 312 313 314 315 316 317 318 319 319 319 320 319 319 320 320 320 321 321 320 320 321 321 321 321 321 321 321 322 322 322 322 324 326 327 326 326 328 328 327 327 325 325 326 327 328 328 327 328 330 331 331 331 331 331 332 332 332 332 333 333 333 333 334 334 332 330 332 335 335 333 332 330 330 331 329 326 325 325 326 326 327 327 329 329
309 310 310 312 313 315 316 317 317 318 319 319 320 321 320 319 319 320 320 320 321 321 321 322 321 321 321 321 321 321 321 322 323 323 324 325 326 325 325 326 327 327 326 326 325 327 328 328 328 328 330 332 332 331 331 331 331 332 331 331 332 333 333 334 334 334 333 332 331 332 334 336 335 333 331 330 330 330 329 327 326 327 328 329 329 329 329
310 311 312 313 314 315 316 318 318 319 319 320 320 320 321 320 319 320 320 320 321 321 321 321 322 322 322 322 321 321 322 323 323 323 324 325 326 325 324 325 326 326 326 325 326 326 327 326 327 330 333 334 333 333 332 331 331 332 331 330 330 332 332 333 333 333 332 333 333 332 333 335 334 332 330 329 330 331 331 330 329 329 330 330 331 330 329
311 311 312 314 315 315 316 318 319 319 319 319 319 319 319 319 318 319 319 320 320 321 321 321 321 321 322 323 321 321 322 323 322 321 323 325 324 323 323 324 325 325 325 325 325 326 325 325 325 330 333 334 335 335 334 332 331 331 330 330 330 329 330 332 332 332 332 334 334 333 333 334 333 331 330 330 329 330 331 331 331 331 331 331 331 330 329
312 312 312 314 316 315 316 317 319 319 319 318 318 319 319 318 318 319 319 320 321 322 323 322 321 322 323 323 322 323 324 324 322 322 322 324 324 323 323 324 324 325 325 325 326 325 325 324 326 330 331 332 332 333 333 333 332 330 329 330 330 329 330 333 333 332 332 333 333 333 334 334 331 330 330 330 330 331 332 331 331 331 331 330 330 329 328
312 312 313 314 316 316 315 316 318 318 318 318 317 318 318 317 317 320 321 321 322 323 323 323 324 325 324 323 323 324 325 324 323 323 323 323 324 325 324 325 324 325 325 326 326 324 323 326 330 332 331 332 332 332 332 332 332 330 329 331 332 330 331 332 332 331 333 334 333 333 335 334 330 329 330 331 331 331 331 331 331 331 330 330 329 328 327
311 312 313 315 316 316 315 316 316 315 316 316 316 317 318 318 319 321 322 323 323 323 323 323 325 325 324 323 323 323 323 323 323 324 324 324 324 324 324 325 325 324 324 324 323 322 325 328 330 331 331 331 332 331 330 329 330 329 329 331 332 330 330 332 331 331 333 334 334 335 336 335 333 331 331 331 331 331 331 331 330 330 330 330 329 327 327
311 312 313 315 316 315 314 315 315 315 315 315 316 317 318 319 321 322 322 323 324 324 323 324 324 324 324 324 323 323 323 323 323 323 325 325 324 324 324 324 324 324 324 323 323 324 327 328 328 329 329 328 329 329 328 328 328 328 327 330 331 330 330 332 332 331 332 334 335 335 335 334 334 334 332 331 331 331 330 330 330 330 329 328 328 328 328
311 311 312 314 316 316 316 316 316 316 317 316 317 317 318 319 321 322 322 323 324 324 324 323 323 323 324 324 322 322 323 324 323 323 324 325 324 323 324 325 324 323 323 324 325 326 327 327 328 329 329 328 328 329 328 327 328 328 328 328 330 330 330 333 334 333 333 335 336 335 334 333 333 333 332 331 330 330 330 329 329 329 329 328 328 328 327
310 311 312 313 315 316 317 317 317 318 318 318 319 319 320 320 322 322 322 322 323 323 323 323 322 321 322 322 321 321 323 324 323 323 324 324 324 323 324 325 325 323 323 324 325 326 326 326 327 329 330 329 329 329 329 328 328 329 329 329 330 331 332 334 334 332 332 334 336 336 335 334 332 332 332 331 330 330 330 330 330 329 330 329 328 328 328
310 311 312 313 313 315 316 316 317 318 318 318 319 320 321 321 322 323 323 322 322 323 324 324 322 321 321 321 321 321 322 323 323 323 323 323 323 324 325 326 324 324 324 324 325 326 327 327 328 330 331 330 330 330 330 329 329 329 329 330 332 332 332 332 330 328 328 330 332 334 334 334 333 332 333 332 331 331 331 330 330 330 331 330 329 328 329
Wind_Speed
20 21 23 25 25 25 28 29 28 31 32 30 28 19 7 6 5 3 10 13 13 8 6 7 7 8 10 12 15 13 6 6 10 7 5 6 7 8 8 8 8 6 5 5 4 2 3 6 5 4 2 6 10 7 4 3 3 5 6 3 8 6 5 4 6 6 9 13 9 2 7 1 5 3 4 5 4 3 1 1 4 6 6 5 6 4 0
20 21 22 24 25 24 26 27 27 26 26 25 22 13 5 7 8 3 8 12 12 8 7 8 8 9 12 14 15 13 7 6 9 10 8 7 6 8 8 7 8 7 6 7 6 4 4 7 5 4 4 5 10 6 4 1 5 4 3 5 5 4 2 1 4 5 5 8 7 2 3 2 3 2 2 2 5 6 3 1 3 4 6 8 7 4 2
19 21 22 23 24 24 24 25 25 23 22 22 16 8 5 7 7 5 7 11 11 8 7 9 9 9 11 13 14 13 8 7 10 12 11 9 8 9 8 7 8 8 6 6 8 5 2 4 5 3 3 3 4 4 5 1 5 4 11 9 6 5 4 3 4 4 4 5 4 3 3 3 2 4 4 2 3 3 2 0 2 0 5 8 6 4 4
19 20 20 22 23 24 24 24 24 21 19 21 16 8 6 5 6 6 6 9 8 7 8 10 10 10 11 10 11 13 11 9 10 11 12 10 10 10 8 9 10 10 8 7 8 7 5 4 3 3 3 1 3 7 8 3 1 8 11 8 5 5 5 4 6 6 6 6 6 8 9 7 5 6 7 8 6 4 6 2 1 3 4 4 1 1 5
19 19 19 20 22 24 24 23 23 20 17 20 15 7 6 4 5 6 3 3 6 7 8 10 10 10 11 8 9 10 11 9 9 11 9 9 10 10 9 10 10 9 9 8 8 9 8 8 6 4 4 4 2 9 10 7 6 7 3 6 3 4 5 7 9 11 12 11 10 12 13 9 5 7 10 11 7 5 8 5 4 5 3 4 2 1 4
19 18 18 19 21 23 24 23 22 19 16 17 12 5 5 5 5 6 9 5 6 6 5 7 9 13 13 9 10 12 11 10 9 10 9 8 10 8 7 11 11 9 9 8 7 8 8 9 10 6 4 5 4 9 8 5 12 8 6 5 3 4 6 7 11 12 13 12 10 10 11 7 2 5 10 11 10 8 8 8 6 6 5 6 3 0 3
19 18 16 17 20 22 24 24 21 18 17 14 7 5 6 6 6 7 10 9 9 9 10 11 10 12 11 8 10 13 13 12 11 8 8 7 9 9 8 10 11 11 11 8 7 8 7 9 8 5 5 7 5 6 6 4 12 7 8 5 5 5 4 4 9 11 13 13 11 12 12 7 5 7 10 10 10 11 10 9 8 8 9 8 5 4 5
19 17 15 15 19 21 23 24 21 17 18 13 6 7 7 6 6 7 8 8 10 10 10 10 10 9 8 8 9 11 13 13 12 10 8 8 8 9 9 12 12 13 14 11 9 8 9 9 5 4 7 7 6 8 6 2 5 7 6 2 5 4 2 3 6 8 11 11 11 13 14 11 10 13 12 9 8 10 10 9 9 10 10 8 5 6 4
18 17 14 14 17 19 21 23 21 17 15 12 7 7 9 10 9 9 8 7 8 9 9 9 9 7 6 7 9 9 12 14 12 12 11 11 10 10 10 13 12 11 12 13 12 11 11 13 9 7 8 7 6 6 4 4 6 7 6 2 5 5 5 4 5 7 8 10 12 14 12 9 10 11 7 5 8 8 7 7 8 8 8 6 7 7 2
18 16 14 13 15 18 19 22 22 17 13 11 8 7 11 13 12 10 8 7 7 7 8 8 8 7 7 8 10 10 12 13 13 11 11 12 14 11 10 11 9 9 13 15 16 14 14 15 11 7 9 10 8 6 6 8 8 5 5 5 2 4 6 5 5 6 7 10 12 11 8 6 6 5 6 8 9 7 6 7 6 4 5 6 6 3 2
18 16 14 12 13 16 17 19 22 19 13 11 8 9 12 12 9 8 6 6 7 7 8 8 8 8 8 10 12 12 12 13 12 10 8 10 11 9 10 10 6 7 11 8 7 10 12 11 6 6 10 13 11 9 10 12 9 5 5 6 5 7 8 5 5 5 8 12 12 10 8 6 3 1 3 5 9 8 8 9 5 2 4 5 5 4 1
17 16 13 12 12 14 15 17 20 18 13 10 9 11 12 12 9 7 5 6 8 7 7 8 9 11 11 11 11 11 12 11 10 9 9 11 12 8 8 10 8 6 8 7 8 11 14 13 10 10 13 14 12 11 11 12 9 7 7 6 5 6 7 6 5 5 7 9 9 9 7 2 2 2 2 2 7 7 8 10 9 8 7 6 7 6 3
16 15 12 11 11 12 14 15 17 18 15 11 9 11 12 12 9 5 4 6 7 7 8 8 12 16 14 10 9 11 11 9 8 10 11 10 11 9 8 11 9 6 7 9 7 8 11 12 11 11 12 10 8 9 13 14 12 10 9 8 7 6 5 4 5 6 6 7 7 7 6 2 3 4 4 4 4 5 7 8 8 7 7 8 7 1 6
15 14 12 11 10 10 12 13 14 17 17 12 9 11 12 10 8 5 4 6 6 7 9 8 10 14 12 9 11 11 10 9 9 11 12 10 9 10 11 11 8 4 5 6 6 5 6 8 7 7 8 8 8 10 13 13 12 13 12 9 6 6 5 3 5 6 6 7 7 7 9 7 4 3 0 2 1 4 5 6 4 6 8 7 5 4 6
14 14 12 11 10 10 11 12 13 15 17 13 9 11 12 9 7 6 5 5 6 7 7 6 8 11 10 9 11 8 6 8 8 9 11 11 9 11 13 11 8 8 6 2 3 4 5 6 7 7 7 9 9 8 8 8 9 13 13 9 7 7 5 2 4 5 6 7 7 6 8 7 2 3 5 5 2 4 6 5 3 7 11 8 5 5 5
14 14 13 11 10 10 10 10 12 13 15 13 9 11 12 8 6 7 7 5 5 6 5 7 10 11 9 9 11 9 6 6 6 7 9 10 10 11 12 11 10 11 8 2 1 5 6 7 9 8 8 9 9 7 7 6 7 9 9 9 9 8 5 2 3 6 7 7 7 6 6 4 2 5 5 3 2 4 6 5 2 4 8 7 7 6 6
14 15 13 10 10 10 9 9 12 13 13 11 8 10 11 6 4 8 8 5 5 7 9 13 13 9 7 7 7 7 6 6 6 6 6 6 6 8 9 10 11 12 11 6 4 6 7 9 9 9 8 8 7 7 7 7 7 6 6 7 7 6 5 5 6 7 7 8 7 6 6 2 4 6 3 3 5 5 5 5 2 4 6 6 6 6 6
14 14 12 10 9 10 8 8 11 12 11 9 7 10 13 8 5 7 7 5 5 7 9 13 12 8 6 6 6 6 6 6 6 5 5 6 7 8 8 7 9 13 13 8 6 7 8 8 8 9 9 7 7 8 7 7 7 7 6 6 6 5 4 6 8 8 8 8 7 6 4 1 4 4 4 5 5 2 5 3 1 3 4 3 3 4 7
14 12 10 9 10 9 7 7 10 11 9 7 7 9 11 8 5 7 7 5 5 6 9 14 13 10 8 8 7 7 6 6 5 5 5 4 4 9 12 10 6 7 9 7 7 8 8 8 8 7 8 8 6 5 4 4 5 6 7 8 8 6 5 7 8 8 8 7 7 7 4 1 3 3 6 5 2 2 2 0 2 1 3 2 2 4 6
12 10 9 9 9 8 6 7 10 9 7 6 6 9 11 9 7 7 7 6 6 7 11 14 13 12 11 9 9 8 7 6 5 5 6 4 5 8 8 7 4 4 4 6 8 8 7 9 8 6 8 8 3 0 2 4 4 6 8 8 6 4 5 7 7 6 7 7 7 6 3 2 2 1 3 3 2 2 2 0 2 1 5 4 5 7 4
11 9 9 9 9 7 6 7 8 7 5 5 5 9 13 10 7 7 7 8 7 5 7 11 14 15 14 13 14 14 12 9 7 6 6 5 3 4 5 4 3 4 4 5 8 7 6 8 7 6 7 5 1 1 5 5 6 8 9 8 6 5 5 6 4 2 3 5 3 2 2 2 3 2 1 2 2 1 2 3 1 2 3 4 8 6 2
10 9 9 10 9 8 7 7 7 6 6 5 4 8 12 7 2 3 6 8 9 10 12 18 22 20 19 20 20 19 17 15 13 10 7 5 4 4 6 6 5 4 3 4 6 6 5 6 6 6 7 5 2 4 7 6 6 7 9 8 5 2 2 3 3 3 4 6 2 2 2 2 2 2 2 3 2 1 3 3 4 4 4 6 7 5 4
10 9 10 10 8 7 7 7 6 6 6 5 4 8 11 7 4 6 8 8 10 13 17 22 21 17 19 22 24 24 22 19 18 16 10 6 5 5 6 7 6 6 4 3 4 5 5 4 4 4 6 5 4 6 8 6 4 3 5 7 5 3 4 5 4 4 6 7 5 2 2 2 1 2 3 4 3 5 5 4 5 4 4 4 6 8 6
8 8 9 8 6 6 7 6 6 6 7 7 7 8 11 12 9 8 8 7 7 7 10 13 11 8 13 16 14 15 17 17 16 15 13 11 8 6 6 5 5 6 5 3 3 3 5 5 4 4 5 6 6 7 8 7 5 4 4 6 6 7 9 8 6 6 6 3 2 2 3 2 2 2 3 1 1 3 5 4 5 4 3 4 5 9 10
6 7 8 8 6 6 7 7 6 6 8 9 9 9 11 12 9 7 7 7 5 4 6 6 7 11 15 13 8 7 12 13 12 13 14 14 12 9 9 7 6 6 6 5 4 4 5 5 5 6 6 4 4 6 7 6 4 5 5 8 6 5 6 7 7 7 7 5 3 2 2 2 1 2 4 4 3 3 3 3 4 4 4 5 4 7 11
6 6 7 7 6 7 7 7 7 7 8 9 10 10 11 12 9 8 8 7 5 5 5 5 8 13 14 11 12 11 9 9 10 11 13 15 16 16 15 12 10 9 7 6 5 5 5 6 6 7 7 4 2 4 5 2 1 2 6 5 1 4 2 4 5 5 7 8 6 4 5 3 2 4 4 4 4 2 2 3 3 2 5 7 5 5 8
8 7 7 6 6 7 8 8 7 7 7 8 9 11 12 12 11 10 9 7 4 4 4 4 6 11 16 19 21 18 10 10 13 13 14 15 16 16 16 12 8 8 7 6 6 5 5 6 7 7 7 5 3 5 4 2 2 5 5 2 2 3 5 5 5 5 6 4 1 2 2 1 1 2 1 2 3 2 2 3 3 2 5 7 6 6 8
9 9 8 8 7 8 8 9 8 8 8 7 8 11 14 14 13 11 10 9 6 4 4 5 7 12 16 17 17 16 14 15 17 16 16 17 16 16 14 11 8 7 7 7 6 5 6 7 6 6 6 5 5 6 4 3 5 7 5 3 3 3 3 3 3 3 4 3 3 3 1 1 2 2 2 3 4 3 2 2 4 5 5 5 6 7 8
8 7 8 9 9 9 9 8 7 7 7 7 8 11 14 15 15 13 11 10 9 6 5 6 7 9 10 10 11 11 13 14 15 15 16 16 16 15 13 10 9 8 7 7 7 6 6 6 6 6 5 4 4 6 6 5 6 7 6 5 4 3 2 1 1 1 3 6 4 1 1 2 5 5 5 5 4 4 3 3 4 5 5 4 4 6 8
6 5 7 8 9 9 7 7 7 7 7 7 8 9 9 10 11 11 10 10 9 6 4 5 6 6 7 10 13 14 16 15 14 14 14 14 13 13 12 10 9 8 7 7 6 6 6 5 5 7 5 4 5 6 6 6 7 7 4 3 4 5 4 0 3 2 3 4 3 1 3 5 7 6 5 6 5 4 4 3 3 3 5 4 4 5 7
4 5 5 6 7 7 6 7 7 7 6 7 7 5 3 3 5 6 7 7 6 5 4 5 6 6 6 10 11 12 15 15 12 12 13 12 11 12 12 11 8 7 7 7 5 6 6 5 5 7 6 5 5 6 6 7 8 4 2 5 4 3 3 2 2 4 6 2 2 3 5 5 6 5 5 6 5 5 5 4 4 3 4 5 6 6 7
4 4 5 5 6 7 7 7 8 7 7 9 11 10 8 3 3 6 7 6 4 5 4 4 6 5 4 5 6 7 11 12 10 9 9 9 9 10 10 9 7 7 8 7 6 6 6 5 6 8 5 1 3 5 6 8 8 5 6 6 4 4 4 4 3 5 5 2 6 5 6 5 6 7 6 6 7 7 6 6 6 7 7 8 9 8 9
5 5 6 7 7 7 7 6 7 8 9 13 18 20 19 12 5 6 6 5 5 6 5 4 5 5 3 5 5 4 6 8 6 6 6 6 6 6 7 7 7 7 8 8 5 4 3 2 3 6 3 0 3 5 6 8 8 7 8 6 4 5 4 2 3 5 4 6 7 4 4 6 9 10 8 7 8 8 9 10 11 12 12 12 12 12 12
6 6 7 7 7 7 6 5 6 7 9 11 14 15 15 14 11 9 9 8 6 6 5 4 5 5 5 7 5 3 5 6 4 4 5 5 5 5 5 5 6 6 7 6 5 4 4 2 2 3 4 4 5 5 6 9 9 8 9 7 5 5 3 2 1 2 3 3 2 1 6 10 12 10 8 8 9 9 11 12 13 14 13 11 10 11 12
6 7 8 8 7 6 6 6 6 8 10 12 10 6 3 7 9 11 14 11 5 4 4 4 5 5 5 7 4 1 3 6 5 4 4 4 5 6 5 4 5 5 4 4 4 5 5 4 4 5 5 5 6 6 6 7 5 6 8 8 7 6 4 4 3 3 1 3 5 4 9 12 11 9 8 9 9 10 11 11 11 13 14 12 11 11 12
8 8 8 8 7 6 7 8 9 9 9 6 4 4 5 6 6 10 13 10 6 4 3 3 5 5 6 6 4 1 2 6 5 4 4 3 3 4 4 4 5 4 3 3 6 6 4 3 3 6 7 7 7 7 6 4 4 7 8 7 6 6 6 5 5 5 4 5 4 4 7 10 10 9 8 9 9 9 10 11 11 12 14 14 13 12 11
8 7 7 6 6 6 7 8 11 13 8 1 5 7 7 6 6 8 10 8 7 5 4 5 6 6 6 6 4 2 3 4 4 4 4 3 2 2 3 5 5 3 3 5 7 5 2 2 3 7 8 7 6 6 5 3 3 4 6 7 6 6 7 6 6 7 7 8 7 8 8 8 9 9 8 10 11 10 10 11 11 12 12 13 11 11 12
6 6 6 6 5 5 5 5 9 12 11 4 3 5 6 5 5 5 5 5 6 6 5 6 7 7 6 6 6 5 4 4 4 4 2 1 1 2 3 4 3 1 3 6 4 2 1 1 4 7 7 6 6 8 7 4 2 2 5 8 8 7 7 8 9 10 9 9 10 12 12 10 10 10 10 10 11 11 10 10 11 12 12 12 12 14 16
5 5 6 7 6 3 1 2 5 7 9 8 5 4 3 4 4 4 3 4 5 5 6 7 8 8 8 8 7 6 5 4 5 4 1 2 2 2 2 2 2 2 4 5 3 3 3 4 4 6 8 7 8 10 9 7 5 4 6 8 8 7 7 7 9 11 11 8 7 10 11 11 11 10 10 9 10 11 11 11 12 14 14 14 14 15 16
6 7 6 5 2 2 3 3 7 7 7 7 5 4 3 4 4 3 3 4 5 4 5 6 6 7 8 9 8 6 5 4 4 3 1 0 1 1 1 1 1 1 5 6 3 4 5 6 5 7 8 7 7 9 9 10 9 8 9 9 9 8 8 7 6 8 7 6 4 3 2 9 11 10 10 11 11 11 11 12 14 16 17 15 14 14 16
5 5 5 4 5 7 6 2 5 6 4 4 3 3 3 4 4 3 3 5 6 4 4 5 6 6 7 8 7 5 3 2 2 2 1 1 1 2 3 2 1 1 5 5 3 3 5 6 6 7 7 6 6 8 9 11 11 10 10 10 9 8 7 6 4 3 5 10 8 4 3 7 11 11 12 13 12 11 12 14 16 18 19 16 13 13 16
6 6 7 10 11 9 7 4 4 4 3 2 3 3 4 4 4 4 4 5 4 3 3 4 5 5 4 6 6 5 3 2 2 3 3 2 2 2 3 2 1 2 5 3 1 3 5 6 6 7 6 5 6 7 8 9 10 10 10 10 9 8 7 6 5 5 9 12 9 5 8 9 11 11 12 14 14 14 15 17 18 19 19 18 16 15 15
10 9 9 9 8 6 4 3 3 3 3 2 2 3 4 4 4 4 4 4 3 3 3 3 2 2 3 5 4 3 2 2 2 2 2 2 1 2 3 3 3 3 2 1 1 4 6 6 7 5 2 1 2 5 7 8 8 9 10 9 9 10 9 7 5 9 13 15 13 10 9 8 10 10 10 14 17 17 18 19 20 20 19 19 18 17 17
9 7 5 5 4 3 2 2 3 3 4 4 4 4 6 6 6 5 4 3 2 3 3 3 2 3 3 3 3 3 3 2 1 2 2 2 2 3 3 3 2 2 1 2 4 5 5 6 6 3 2 1 1 1 4 7 8 8 9 10 10 11 11 8 7 10 12 13 16 15 10 8 10 11 10 14 17 17 17 19 20 20 20 19 18 18 19
6 4 3 2 2 1 1 2 3 4 5 5 5 6 6 6 5 4 2 1 2 3 3 3 4 3 1 1 2 3 2 2 2 2 2 2 2 4 4 2 1 1 3 5 5 4 5 7 5 4 6 4 2 1 2 5 6 7 8 10 10 10 10 10 9 10 8 9 13 13 11 10 12 12 10 13 17 19 18 19 21 21 21 20 20 20 21
4 2 2 2 2 2 2 2 3 4 4 5 6 7 7 6 5 3 0 1 3 3 1 2 3 2 1 0 1 1 2 2 3 3 2 3 3 3 2 2 2 3 4 5 6 6 7 7 2 4 6 5 4 3 3 4 5 6 7 9 11 11 11 10 12 12 10 12 11 12 12 13 14 14 13 15 18 21 20 20 22 23 22 21 21 21 21
4 2 2 3 3 3 5 5 5 5 4 5 6 6 6 6 5 2 0 0 1 2 4 4 2 1 2 2 2 1 1 3 3 2 2 3 3 2 1 2 4 5 4 5 7 6 4 1 4 5 5 6 5 5 5 5 7 9 8 7 9 10 11 11 13 12 12 12 11 11 14 17 18 18 17 16 19 22 22 22 23 23 22 22 23 23 22
2 1 3 3 3 4 6 6 6 6 6 6 6 5 5 6 5 2 0 1 1 2 2 1 3 3 3 2 2 2 2 2 2 2 2 2 2 1 1 3 5 5 5 6 7 5 1 3 5 3 3 4 6 6 7 8 10 11 10 9 9 10 10 13 14 14 14 15 14 14 15 17 18 18 18 18 19 21 23 24 24 24 23 23 23 23 22
3 2 3 3 3 5 6 6 6 7 7 6 5 5 6 5 2 1 2 2 0 1 2 1 2 2 1 1 2 3 4 3 2 2 2 3 4 3 3 5 6 6 5 5 4 2 1 3 3 1 1 2 4 6 7 8 9 10 9 9 10 10 9 12 15 17 18 18 17 16 17 18 16 15 18 19 19 21 24 24 24 23 24 24 23 23 22
4 3 3 4 5 5 4 4 6 7 6 5 5 5 5 3 0 1 1 1 2 2 1 2 2 2 1 1 3 4 3 2 2 3 4 5 5 4 5 6 7 5 3 2 2 1 1 1 1 1 1 2 2 4 7 8 8 8 8 9 11 12 12 14 17 19 20 21 20 20 20 20 18 16 17 19 21 22 24 24 23 23 24 24 23 23 21
3 4 4 6 7 6 5 4 5 5 5 5 4 4 3 2 0 1 1 1 2 0 2 2 2 2 3 3 4 3 1 2 2 4 5 5 4 5 6 7 6 3 2 2 2 1 1 1 0 1 1 2 3 5 6 7 6 6 8 9 9 11 12 11 10 9 9 13 15 17 17 17 18 17 18 21 24 24 21 21 22 23 23 23 23 22 22
4 4 5 6 7 7 6 6 5 4 5 5 4 3 3 2 0 1 1 2 2 2 1 1 1 2 3 3 3 3 2 2 3 5 6 5 4 5 6 5 3 2 2 2 2 2 1 1 1 2 2 2 3 4 5 6 6 6 8 9 9 10 9 8 10 12 5 6 7 14 18 17 18 20 20 21 21 18 15 16 21 23 22 21 22 22 22
Wind_Direction
339 340 339 341 344 344 345 347 348 349 351 354 350 339 305 284 312 149 160 175 185 203 229 220 225 239 243 250 252 249 240 249 270 266 209 214 236 238 240 246 259 272 267 274 274 217 237 254 258 289 299 97 102 105 69 29 312 290 275 320 8 337 279 276 287 289 300 296 283 137 100 68 276 294 332 312 307 331 302 318 334 307 300 311 297 294 228
338 338 337 340 343 344 344 345 348 352 358 359 347 331 319 313 304 245 172 182 198 224 237 230 230 228 235 245 249 253 253 234 250 256 236 219 227 236 236 232 239 244 241 258 259 209 202 239 251 318 327 85 99 115 109 34 264 272 360 18 1 317 284 289 278 276 281 269 254 159 95 342 314 325 344 320 317 312 265 193 12 325 311 323 306 297 19
335 335 335 338 340 343 344 343 345 349 356 359 348 315 306 304 282 248 183 186 211 233 239 248 251 246 248 247 243 249 251 232 238 254 256 238 228 240 239 230 238 239 229 244 249 243 260 228 198 221 239 129 113 151 135 190 262 20 29 9 334 305 310 333 303 297 295 275 282 326 331 321 288 266 260 238 279 296 232 145 45 296 306 326 321 317 333
331 331 333 336 338 341 343 342 342 344 351 355 346 306 291 304 283 265 198 184 212 238 246 259 267 276 285 277 253 242 236 227 220 236 259 250 231 244 242 225 233 232 221 229 235 236 255 245 226 275 272 154 156 163 152 196 263 46 19 337 308 296 294 298 285 277 279 281 294 289 267 256 259 262 257 251 245 170 135 141 185 188 262 295 236 266 307
327 327 330 333 336 338 341 342 339 339 346 351 341 291 262 289 282 291 307 193 213 224 233 241 249 263 273 285 284 259 240 234 211 202 232 253 243 244 242 233 238 233 221 227 232 225 229 241 249 270 287 300 248 161 170 192 139 98 329 283 276 283 274 270 264 259 257 249 246 251 252 262 297 294 282 283 277 187 162 199 218 175 215 263 198 97 325
326 324 326 332 335 337 340 341 337 335 340 345 338 288 269 289 276 315 351 328 250 237 248 254 252 249 247 258 287 283 264 249 226 194 198 243 252 238 232 241 248 246 231 229 237 228 223 238 239 217 222 270 233 182 196 173 127 137 247 236 200 258 269 275 275 278 280 274 270 275 277 279 275 273 281 288 283 252 227 245 238 188 214 267 278 311 285
327 323 323 331 335 336 340 341 338 335 334 333 319 271 292 308 295 322 347 328 293 295 309 309 287 259 250 249 254 266 272 265 254 222 187 211 239 230 228 240 241 243 243 240 242 232 228 248 253 242 263 284 268 229 233 135 127 167 249 223 194 237 251 280 291 300 303 298 298 294 287 273 225 231 251 263 274 269 255 255 248 224 232 251 259 265 274
328 324 322 331 334 334 339 341 339 340 339 331 278 246 282 316 321 325 330 316 305 306 306 303 288 266 266 268 252 254 265 265 265 256 221 208 215 209 226 246 243 237 236 239 247 246 253 268 259 217 243 266 271 261 265 227 173 206 245 190 150 199 247 320 305 296 292 287 281 273 267 262 248 237 231 235 259 265 256 256 259 252 247 243 247 264 273
326 323 321 329 332 332 339 342 340 346 352 340 295 275 313 330 325 319 309 296 305 310 299 286 276 261 253 260 262 262 260 257 263 271 268 257 236 209 215 236 244 248 239 235 238 233 243 261 252 219 231 239 244 253 260 265 239 223 238 220 150 191 255 287 272 271 274 268 266 266 266 274 277 270 270 275 263 253 247 248 254 266 273 266 262 271 268
324 320 316 324 329 330 339 345 342 345 357 349 317 314 341 341 327 320 309 289 292 293 283 277 270 261 253 252 252 254 257 257 255 259 268 265 251 236 231 231 235 253 245 235 234 226 227 242 239 224 236 238 238 240 224 237 250 246 257 275 260 256 276 280 271 284 286 273 277 285 288 294 291 302 347 332 303 296 285 258 246 266 292 284 280 296 88
321 317 312 319 327 329 336 344 344 346 358 1 333 316 335 346 332 318 307 285 280 274 267 265 260 254 254 259 261 257 254 256 256 259 274 278 266 253 251 254 256 261 256 260 292 290 272 265 279 299 274 252 237 226 219 226 237 242 258 279 299 299 297 288 272 281 286 289 299 302 291 287 287 48 44 315 294 305 306 292 289 254 230 256 275 274 168
319 315 309 315 325 328 331 337 343 346 350 350 325 303 321 346 333 304 294 284 280 281 274 269 275 276 262 256 270 273 260 252 255 269 282 286 284 281 273 268 262 263 281 317 352 326 297 283 285 288 272 249 226 223 233 241 242 238 245 254 261 275 285 288 277 266 271 286 293 283 273 242 143 134 126 245 279 294 292 288 286 266 247 259 261 242 193
317 314 306 312 323 325 327 334 342 344 344 343 323 303 318 338 326 292 293 291 276 280 286 283 292 293 282 275 290 293 286 283 278 273 271 269 277 289 295 284 266 243 272 300 331 327 301 282 268 264 265 261 248 241 242 244 245 242 242 243 248 262 276 288 288 276 265 264 263 271 280 219 187 233 223 205 249 282 280 278 283 295 317 324 310 289 107
313 312 302 302 314 319 323 335 342 340 340 339 318 304 311 318 311 307 309 287 274 290 299 296 297 298 299 304 301 286 279 286 283 270 265 263 268 268 268 283 299 282 267 306 341 331 294 279 266 256 256 255 254 253 247 245 246 246 244 239 244 264 270 268 274 273 270 270 264 270 282 277 265 285 289 135 286 311 313 304 317 20 34 24 0 26 78
310 312 299 288 302 314 317 330 338 335 336 335 312 297 297 295 300 311 302 286 292 296 288 278 295 309 315 310 301 294 280 275 272 264 258 253 255 258 257 265 284 278 266 314 348 291 267 260 252 242 232 227 233 247 254 253 248 243 242 235 224 236 241 239 278 276 267 269 266 266 279 285 295 77 82 77 6 333 344 322 327 44 51 55 47 49 78
305 310 301 283 295 311 312 322 330 329 333 334 315 295 294 290 289 290 285 287 284 274 291 317 319 317 310 299 305 319 317 293 284 276 260 241 229 239 249 251 256 261 256 217 243 268 259 247 244 242 237 232 232 234 236 243 244 239 245 245 241 251 257 231 254 269 272 274 269 258 266 281 63 86 87 76 32 6 352 316 285 43 42 41 42 54 76
303 305 299 281 287 305 309 315 323 328 331 329 314 298 298 302 308 293 282 274 262 263 292 310 310 305 295 292 307 313 304 301 300 292 290 288 273 256 241 230 233 243 239 223 221 238 243 243 241 242 241 233 229 231 231 236 243 245 246 239 236 256 282 269 251 247 248 258 266 271 271 262 97 102 102 41 41 27 322 286 280 16 22 30 32 50 78
303 302 295 280 285 300 305 310 320 325 323 318 305 292 290 294 302 289 274 271 274 266 274 286 291 294 298 307 319 315 306 311 316 314 308 302 304 300 280 249 228 223 221 223 232 230 234 241 239 244 246 229 222 234 227 210 221 239 246 238 229 233 255 267 266 253 235 232 242 258 268 28 80 88 70 39 40 3 294 288 47 14 3 11 7 52 99
301 300 289 281 289 298 298 305 320 320 311 308 304 288 285 288 282 273 272 269 266 268 282 293 298 300 296 296 294 286 285 289 294 303 291 274 320 324 304 290 279 239 209 209 234 233 232 236 235 245 250 232 224 243 229 191 204 227 233 236 239 237 236 243 252 257 251 241 244 249 244 33 23 64 76 53 349 283 311 301 161 317 322 309 357 71 112
295 294 284 283 293 296 291 302 316 316 301 296 298 290 288 283 257 252 267 277 282 286 281 282 294 312 317 307 292 284 284 281 274 276 273 281 358 342 292 265 290 288 223 212 230 231 231 236 230 233 247 243 232 263 227 207 214 230 238 241 239 237 250 248 244 251 253 245 251 260 253 57 28 59 84 49 336 330 3 137 175 307 319 341 60 81 110
288 284 276 280 288 290 289 298 310 310 290 278 288 293 289 273 232 230 257 271 281 285 276 286 309 322 316 302 296 295 292 285 282 287 282 281 327 323 276 267 298 285 243 232 234 225 230 242 238 233 241 240 138 184 231 231 226 225 230 240 237 220 231 249 262 302 277 251 251 274 275 18 31 17 2 47 92 94 327 322 306 289 312 31 75 97 212
282 274 271 279 285 281 280 292 306 304 281 265 274 288 283 265 197 253 274 268 263 265 279 295 302 300 288 282 279 278 279 281 281 285 293 291 278 268 276 292 292 265 268 291 265 243 241 250 251 252 249 234 169 190 214 227 234 214 200 213 238 246 237 258 284 316 298 289 301 129 186 258 319 344 359 32 42 302 294 305 302 313 5 52 93 136 227
278 267 267 279 285 277 275 288 302 298 278 263 269 283 280 280 322 318 293 273 267 269 274 278 280 278 272 265 257 250 250 257 262 265 270 271 269 269 271 278 280 269 277 316 304 289 297 296 292 293 282 275 261 227 211 216 245 229 198 206 218 221 230 246 266 276 276 281 282 247 210 238 295 350 34 49 12 323 324 325 318 338 22 49 100 131 175
276 265 266 274 280 280 283 287 289 288 278 263 259 274 282 286 300 307 291 270 264 273 272 263 258 263 266 264 259 246 238 240 247 251 250 246 251 263 261 261 278 278 281 327 340 298 296 302 308 306 294 292 292 269 242 225 207 185 203 224 220 219 231 237 242 250 252 247 250 304 335 358 18 343 334 19 44 343 350 346 328 346 44 48 76 122 155
281 273 271 269 266 273 283 285 280 282 280 264 255 264 275 277 278 273 270 273 274 288 291 276 269 275 271 269 281 265 242 240 243 240 236 235 235 244 257 274 298 296 294 318 315 280 268 269 267 269 272 287 317 301 279 258 205 175 217 238 224 206 230 241 237 240 253 264 245 207 236 274 20 17 334 348 27 30 27 7 327 344 66 78 75 118 144
285 277 270 262 259 267 281 286 280 281 283 269 256 256 262 271 275 262 258 276 280 263 269 278 283 288 289 295 303 292 256 238 243 240 237 235 232 237 251 267 284 287 289 298 288 271 264 258 252 255 256 254 292 298 296 323 81 209 242 247 144 110 172 244 252 250 257 267 262 218 210 240 37 52 21 5 16 11 360 348 329 10 90 101 92 111 140
281 274 268 263 264 272 282 287 280 279 287 279 261 255 257 265 271 262 253 265 275 254 254 262 282 309 322 317 305 293 266 248 256 253 246 242 236 236 242 248 260 271 273 270 266 261 256 254 252 254 254 251 263 277 293 337 288 246 242 236 134 171 217 239 254 259 261 257 188 141 184 226 35 40 15 21 15 349 328 330 344 70 120 131 121 120 140
283 273 266 264 270 274 279 286 281 275 285 285 264 256 256 255 254 248 242 246 256 273 296 296 296 311 317 306 287 271 254 252 255 250 244 242 238 235 236 237 240 245 247 250 254 250 245 248 250 250 252 254 251 247 258 294 278 254 233 204 205 230 246 249 234 250 303 346 100 131 198 191 135 134 108 65 12 342 2 31 46 86 128 159 146 136 147
294 274 258 258 270 275 276 282 280 268 276 287 277 266 259 247 238 236 232 233 241 261 291 293 284 290 299 295 285 275 264 256 249 242 238 236 233 231 230 230 234 235 238 244 249 251 253 253 253 253 252 248 241 237 234 240 251 251 233 200 193 210 219 244 218 181 349 349 3 40 311 94 106 94 75 64 22 356 43 71 79 112 144 165 139 138 154
301 273 249 252 265 273 272 274 272 266 270 281 282 273 252 223 214 219 219 219 229 247 277 287 281 290 302 293 281 273 266 257 244 234 233 232 230 228 223 222 227 232 236 241 244 252 261 257 254 258 244 202 215 242 241 231 237 252 248 193 187 206 202 324 360 53 63 6 354 61 94 98 101 91 77 72 50 33 60 58 52 119 152 151 127 138 152
281 263 257 263 268 270 267 266 271 275 273 268 266 265 250 176 155 170 186 195 211 234 258 275 275 285 290 273 258 255 259 254 238 227 231 233 231 227 220 218 221 220 228 239 240 243 252 255 253 253 233 198 221 241 235 231 234 226 120 98 115 148 127 88 46 70 75 40 256 148 120 120 121 108 90 78 66 69 81 69 58 96 138 146 138 141 142
280 272 273 277 276 273 270 269 270 270 260 249 248 256 272 296 103 138 157 162 183 224 250 278 281 282 287 272 253 246 252 250 238 231 233 229 228 227 219 218 224 218 219 233 238 238 248 258 256 252 244 229 270 249 231 240 244 204 138 124 133 125 100 103 117 91 74 261 233 184 151 149 124 102 92 84 78 80 84 83 89 103 113 112 103 96 107
293 292 285 284 284 278 274 272 272 271 265 255 253 255 254 246 200 152 163 178 208 233 246 278 283 271 282 304 297 251 238 246 245 236 229 219 225 231 214 213 227 222 212 221 231 232 241 265 270 267 266 271 265 252 240 247 241 194 156 149 142 114 94 100 124 115 142 218 233 216 164 132 106 98 101 100 93 92 96 99 102 99 93 88 80 69 76
304 302 293 289 283 273 272 279 281 280 272 260 259 261 248 224 198 179 181 195 230 248 240 256 280 272 274 291 286 215 210 238 244 233 229 213 210 227 223 212 221 218 209 217 228 224 215 208 231 256 248 224 228 237 243 248 237 190 161 157 139 118 124 163 147 133 173 215 273 81 120 118 111 112 116 109 104 106 107 109 111 106 95 89 88 83 78
305 305 297 286 275 266 274 278 269 264 260 252 252 260 225 191 189 188 187 192 228 261 228 231 264 274 278 282 281 170 220 257 251 237 238 212 200 223 231 210 212 219 209 211 233 235 222 206 210 227 232 226 223 223 233 244 224 162 158 164 147 137 161 177 162 164 165 44 46 98 131 128 125 128 128 121 119 118 115 116 117 113 108 106 105 100 93
287 296 295 286 276 271 275 267 245 238 248 248 219 167 128 121 147 180 192 205 242 277 276 262 261 261 269 278 288 352 284 266 250 233 240 226 208 231 240 226 225 228 202 202 230 234 216 187 213 232 230 223 222 225 229 224 173 157 166 169 154 162 188 191 181 182 156 100 94 164 160 139 134 139 138 132 127 122 122 126 122 116 115 116 112 103 99
278 287 288 280 267 255 254 245 225 220 229 208 97 120 129 123 143 177 198 217 230 232 251 272 264 261 273 281 288 304 284 264 247 230 230 230 219 230 247 243 232 212 205 228 235 231 196 174 226 237 233 226 223 223 215 191 164 170 174 174 177 187 188 182 186 188 161 138 158 191 182 154 149 152 148 142 136 129 128 128 126 123 122 118 111 103 100
273 276 268 258 250 240 235 223 210 212 218 208 126 144 163 171 188 199 203 213 213 209 222 246 252 255 262 265 268 275 284 287 271 246 233 302 307 221 221 239 240 211 232 240 226 169 131 210 229 237 240 235 232 229 215 189 172 179 170 170 180 190 183 176 182 185 170 155 171 186 183 173 168 163 156 150 142 133 130 130 128 126 123 117 109 105 103
258 251 240 232 236 261 310 115 143 172 188 192 201 215 196 190 214 218 193 198 213 212 215 228 237 241 244 248 250 248 250 268 274 264 266 6 310 240 217 257 290 273 247 240 205 170 208 224 223 235 242 234 225 226 218 201 197 198 182 173 175 181 183 181 186 190 184 174 187 196 185 169 163 161 157 152 144 136 135 135 132 129 127 124 119 113 108
234 237 237 225 227 332 360 102 135 154 177 190 205 229 222 205 218 224 207 214 224 217 211 223 230 229 235 247 255 246 230 245 269 271 242 235 282 274 267 286 328 280 252 240 201 189 225 235 227 231 240 237 221 215 211 206 205 201 190 179 171 170 174 177 189 195 171 114 51 323 200 152 154 165 163 155 150 145 141 139 138 138 137 135 134 131 127
226 235 255 291 324 329 322 274 182 187 206 211 206 217 229 224 224 227 229 233 235 225 212 221 229 223 223 236 248 242 218 229 269 279 251 226 213 228 237 225 90 303 263 247 191 186 232 247 242 237 241 239 222 209 205 207 207 200 190 182 168 157 159 163 174 179 122 97 75 343 263 166 161 171 171 161 154 149 145 143 144 145 144 143 139 135 135
266 277 294 304 303 295 286 260 215 201 213 224 220 228 236 230 222 221 228 238 247 238 197 207 231 238 216 216 231 235 213 198 223 239 241 227 205 234 247 223 153 236 258 264 237 225 234 240 243 244 245 235 216 204 202 205 200 188 184 183 167 152 156 169 164 135 116 116 128 206 234 195 169 169 167 157 150 149 151 151 151 150 150 150 146 142 142
279 282 286 288 280 258 234 223 212 205 207 204 206 229 235 226 220 226 229 228 237 240 210 193 221 235 199 196 216 227 204 196 227 251 250 227 199 228 239 222 212 232 264 349 279 244 241 244 247 249 261 282 220 205 203 201 192 180 182 185 172 158 164 179 158 121 118 132 157 196 222 193 158 152 155 151 149 153 157 159 160 159 156 155 154 152 152
277 266 259 259 247 218 197 190 190 206 219 212 207 222 229 222 219 224 225 217 229 239 227 214 226 227 198 188 204 211 199 192 218 247 242 229 224 233 232 227 231 236 226 240 243 240 244 252 248 217 140 77 340 245 201 193 189 181 179 182 180 172 170 172 150 121 124 152 174 187 195 172 145 142 151 155 154 157 160 162 164 165 161 157 156 153 152
260 233 224 249 247 210 181 174 183 209 224 221 217 227 235 236 234 233 235 259 263 240 218 217 233 235 207 174 221 230 213 184 189 222 231 224 231 237 234 235 278 265 243 248 251 243 245 253 243 168 146 163 203 260 202 188 187 188 182 180 186 187 179 165 142 128 143 180 183 175 173 164 147 146 164 169 160 157 158 159 161 163 161 157 152 151 153
241 206 207 251 254 234 220 211 205 210 218 222 225 230 239 252 261 264 286 287 269 270 298 290 258 241 223 232 226 224 224 215 208 213 223 228 240 252 252 246 252 251 250 254 252 246 251 260 245 127 141 171 195 223 231 205 199 212 205 186 183 187 180 154 133 137 169 199 192 172 168 166 156 160 180 180 163 155 156 158 158 160 159 154 150 150 152
236 220 224 243 246 228 221 224 227 227 231 239 240 238 244 258 265 264 124 210 282 356 9 346 303 192 189 229 219 178 219 242 226 202 217 236 246 283 315 264 247 245 247 251 251 250 259 342 79 109 146 174 185 210 238 235 226 228 219 186 175 184 176 150 137 150 178 195 194 182 174 167 163 170 180 172 155 151 155 158 157 158 155 151 150 152 153
255 236 223 231 234 221 218 227 240 244 243 246 250 249 246 244 243 233 156 223 183 129 102 290 259 204 187 217 220 188 197 230 232 227 245 253 245 239 241 242 242 240 240 247 255 262 310 74 83 100 149 170 176 199 225 230 226 224 211 180 172 186 178 155 153 169 184 187 189 186 173 163 163 169 168 158 151 152 155 157 157 157 155 152 152 154 155
267 269 242 244 251 242 232 233 241 246 246 247 249 254 255 251 245 44 30 350 303 135 140 209 262 256 246 289 263 233 213 204 213 218 220 228 231 227 226 236 243 243 241 249 266 289 58 94 106 125 218 214 203 213 226 228 226 225 213 185 175 184 183 167 167 178 186 188 188 181 167 161 163 164 158 153 153 154 155 156 156 155 155 155 155 156 157
247 256 249 245 252 263 270 260 248 249 251 246 239 247 256 255 255 48 32 24 12 348 293 213 216 230 217 238 265 255 230 194 214 234 228 228 233 234 237 246 252 253 259 287 304 317 36 84 118 165 226 266 257 246 244 238 225 215 212 201 186 183 186 182 176 178 186 189 183 172 165 165 167 164 159 156 153 152 154 158 158 155 156 158 157 155 154
232 244 253 251 252 264 284 286 270 271 284 289 288 291 288 267 189 43 12 115 114 204 261 240 224 229 216 214 237 251 211 153 206 233 234 234 237 238 241 251 258 262 287 325 330 333 6 21 16 222 254 287 284 273 262 250 229 202 202 205 188 172 176 179 162 154 184 196 178 157 153 160 163 158 153 151 150 150 154 159 159 156 156 157 157 154 152
234 241 249 250 248 252 263 268 265 268 275 278 291 323 332 329 81 132 219 197 163 164 243 273 246 233 234 235 240 247 232 213 230 239 240 239 238 241 249 260 280 316 334 341 349 342 346 355 275 255 253 262 271 270 257 245 233 211 201 195 167 145 154 158 123 109 125 227 187 143 137 144 151 150 147 148 152 155 156 158 160 160 159 157 156 154 151